Tuesday, February 20, 2018, 9:40 AM GMT
Back to Local

CYCX, Gagetown Can-Mil

Location: , , Canada Lat: 45.833
Local Time: 9:40 AM GMT ( 9:40 GMT) Lon: -66.433
Time Zone: GMT Elev: 167 ft

Show me the last for .
Show Coded

Time T Td Feel RH Dir Speed Gust Alt SLP Vis Weather Sky Remarks
2018-02-20 09:00 36 34 33 93 340° 3 - 30.25 30.26 2 BR BKN019 OVC036 None
2018-02-20 08:00 37 36 - 93 220° 2 - 30.24 30.24 4 BR BKN019 OVC036 None
2018-02-20 07:00 37 36 - 93 - Calm - 30.23 30.24 4 BR SCT019 OVC055 None
2018-02-20 06:24 39 37 36 93 170° 5 - 30.24 30.25 4 BR BKN019 OVC055 None
2018-02-20 06:00 39 37 36 93 180° 5 - 30.25 30.25 12 -DZ SCT015 OVC028 None
2018-02-20 05:00 39 37 36 93 190° 5 - 30.26 30.27 6 -RA BKN015 OVC035 None
2018-02-20 04:00 39 36 35 86 200° 6 - 30.28 30.29 6 -RA OVC015 None
2018-02-20 03:00 41 34 36 75 190° 7 - 30.28 30.29 15 -RA OVC015 None
2018-02-20 02:00 39 34 34 80 220° 7 - 30.29 30.29 15 BKN022 None
2018-02-20 01:00 39 32 30 75 220° 14 20 30.30 30.31 15 BKN022 None
2018-02-20 00:00 39 30 30 69 210° 12 17 30.30 30.31 15 BKN030 None
2018-02-19 23:00 39 28 30 64 210° 17 - 30.32 30.33 15 BKN029 OVC230 None
2018-02-19 22:00 39 27 28 60 200° 14 24 30.32 30.33 15 SCT035 BKN230 None
2018-02-19 21:00 41 27 31 56 200° 13 24 30.33 30.34 15 SCT035 BKN230 None
2018-02-19 20:00 41 27 31 56 190° 12 25 30.33 30.34 15 SCT035 None
2018-02-19 19:00 39 27 29 60 210° 15 23 30.38 30.39 15 BKN040 None
2018-02-19 18:00 39 23 30 51 190° 18 - 30.40 30.41 15 BKN040 Pressure falling rapidly
2018-02-19 17:00 37 19 26 47 200° 18 25 30.47 30.47 15 FEW040 SCT090 SCT240 None
2018-02-19 16:00 36 16 26 43 190° 15 - 30.51 30.52 15 FEW030 BKN100 BKN240 None
2018-02-19 15:00 28 16 25 58 300° 3 - 30.55 30.55 15 FEW100 FEW240 None
2018-02-19 14:00 21 14 - 73 - Calm - 30.56 30.57 15 FEW100 None
2018-02-19 13:00 18 12 - 78 - Calm - 30.56 30.57 15 FEW110 None
2018-02-19 12:00 10 7 - 84 - Calm - 30.54 30.55 15 FEW120 None
2018-02-19 11:00 12 9 - 85 210° 2 - 30.54 30.55 15 FEW120 None
2018-02-19 10:00 18 14 - 85 210° 2 - 30.51 30.52 15 CLR None

Support USWX by starting your Amazon purchase here.